AL3A Weather Reports


Display with metric or nautical units.
time (UTC)temp
F
wind
direction
speed
MPH
gust
MPH
rain 1hr
in
rain 24hr
in
rain mn
in
humidity
%
barometer
mb
20260903074517 48 0.0 0.0 0.00 0.01 0.00 80 1026.5
20260903073517 48 0.0 0.0 0.00 0.01 0.00 82 1027.0
20260903072517 47 0.0 0.0 0.00 0.01 0.00 83 1026.5
20260903071517 48 0.0 0.0 0.00 0.01 0.00 82 1026.9
20260903070517 48 0.0 0.0 0.00 0.01 0.00 81 1026.1
20260903065515 49 0.0 0.0 0.00 0.01 0.01 79 1026.6
20260903064515 51 0.0 0.0 0.00 0.01 0.01 78 1026.7
20260903063516 49 0.0 0.0 0.00 0.01 0.01 80 1026.7
20260903062515 49 0.0 0.0 0.00 0.01 0.01 79 1026.5
20260903061516 51 0.0 0.0 0.00 0.01 0.01 77 1027.1
20260903060515 51 0.0 1.0 0.00 0.01 0.01 76 1026.7
20260903055515 51 0.0 0.0 0.00 0.01 0.01 78 1026.7
20260903054516 51 248 1.0 3.0 0.00 0.01 0.01 78 1026.7
20260903053516 52 0.0 0.0 0.00 0.01 0.01 76 1026.7
20260903052516 51 0.0 1.0 0.00 0.01 0.01 77 1027.0
20260903051515 53 0.0 0.0 0.00 0.01 0.01 74 1027.5
20260903050515 53 0.0 0.0 0.00 0.01 0.01 73 1027.0
20260903045515 53 0.0 0.0 0.00 0.01 0.01 75 1027.1
20260903044515 54 0.0 0.0 0.00 0.01 0.01 72 1027.4
20260903043515 54 0.0 0.0 0.00 0.01 0.01 72 1027.0
20260903042535 55 0.0 0.0 0.00 0.01 0.01 73 1027.1
20260903041515 55 0.0 0.0 0.00 0.01 0.01 70 1027.0
20260903040515 56 0.0 0.0 0.00 0.01 0.01 70 1026.9
20260903035517 57 270 1.0 3.0 0.00 0.01 0.01 69 1027.3
20260903034517 58 0.0 0.0 0.00 0.01 0.01 66 1027.1
20260903033517 58 0.0 3.0 0.00 0.01 0.01 66 1026.6
20260903032517 58 0.0 2.0 0.00 0.01 0.01 66 1026.4
20260903031517 59 0.0 2.0 0.00 0.01 0.01 63 1026.6
20260903030517 61 0.0 0.0 0.00 0.01 0.01 64 1026.0
20260903025537 61 0.0 0.0 0.00 0.01 0.01 60 1026.1
20260903024517 62 0.0 1.0 0.00 0.01 0.01 60 1026.0
20260903023517 63 0.0 2.0 0.00 0.01 0.01 58 1025.9
20260903022537 64 0.0 0.0 0.00 0.01 0.01 57 1026.0
20260903021517 65 0.0 0.0 0.00 0.01 0.01 55 1026.2
20260903020517 65 248 1.0 6.0 0.00 0.01 0.01 54 1025.8
20260903015517 66 225 1.0 5.0 0.00 0.01 0.01 53 1026.3
20260903014517 67 248 3.0 7.0 0.00 0.01 0.01 51 1026.4
20260903013537 68 270 2.0 10.0 0.00 0.01 0.01 50 1026.4
20260903012517 69 225 2.0 11.0 0.00 0.01 0.01 49 1026.8
20260903011517 70 248 3.0 14.0 0.00 0.01 0.01 48 1026.8
20260903010538 71 270 4.0 13.0 0.00 0.01 0.01 48 1027.2
20260903005657 71 248 6.0 12.0 0.00 0.01 0.01 48 1027.3
20260903004517 71 225 6.0 17.0 0.00 0.01 0.01 48 1027.2
20260903003517 70 248 4.0 14.0 0.00 0.01 0.01 48 1026.8
20260903002517 69 248 4.0 12.0 0.00 0.01 0.01 49 1026.8
20260903001517 70 248 2.0 9.0 0.00 0.01 0.01 48 1026.8
20260903000537 71 248 5.0 11.0 0.00 0.01 0.01 48 1026.4
20260902235517 71 248 4.0 11.0 0.00 0.01 0.01 48 1026.5
20260902234517 73 225 6.0 21.0 0.00 0.01 0.01 45 1026.8
20260902233537 73 270 5.0 24.0 0.00 0.01 0.01 45 1026.9
20260902232517 74 270 4.0 11.0 0.00 0.01 0.01 47 1026.9
20260902231537 73 248 5.0 16.0 0.00 0.01 0.01 50 1027.2
20260902230517 72 248 2.0 12.0 0.00 0.01 0.01 53 1026.8
20260902225517 73 248 3.0 10.0 0.00 0.01 0.01 52 1027.3
20260902224517 73 270 6.0 20.0 0.00 0.01 0.01 49 1027.2
20260902223657 74 225 3.0 9.0 0.00 0.01 0.01 53 1027.5
20260902222516 73 248 5.0 19.0 0.00 0.01 0.01 50 1027.4
20260902221517 73 270 3.0 12.0 0.00 0.01 0.01 53 1027.7
20260902220516 72 248 7.0 20.0 0.00 0.01 0.01 55 1027.4
20260902215517 72 225 6.0 13.0 0.00 0.01 0.01 55 1027.5
20260902214516 73 270 2.0 12.0 0.00 0.01 0.01 54 1027.7
20260902213516 71 225 3.0 12.0 0.00 0.01 0.01 55 1027.3
20260902212517 72 270 4.0 11.0 0.00 0.01 0.01 53 1027.7
20260902211516 72 270 9.0 18.0 0.00 0.01 0.01 54 1027.8
20260902210516 72 248 5.0 15.0 0.00 0.01 0.01 56 1027.0
20260902205517 70 248 6.0 18.0 0.00 0.01 0.01 60 1027.1
20260902204557 71 225 2.0 9.0 0.00 0.01 0.01 56 1027.4
20260902203516 72 225 3.0 11.0 0.00 0.01 0.01 56 1027.6
20260902202517 72 248 6.0 16.0 0.00 0.01 0.01 56 1027.8
20260902201516 71 270 3.0 12.0 0.00 0.01 0.01 57 1027.9
20260902200536 71 270 7.0 13.0 0.00 0.01 0.01 56 1028.1
20260902195536 70 270 5.0 13.0 0.00 0.01 0.01 59 1027.7
20260902194517 70 270 7.0 13.0 0.00 0.01 0.01 57 1027.7
20260902193516 71 270 4.0 9.0 0.00 0.01 0.01 57 1028.2
20260902192516 71 248 7.0 16.0 0.00 0.01 0.01 59 1028.4
20260902191516 71 248 7.0 17.0 0.00 0.01 0.01 55 1028.4
20260902190516 72 248 5.0 18.0 0.00 0.01 0.01 53 1028.9
20260902185516 71 248 5.0 13.0 0.00 0.01 0.01 55 1028.5
20260902184516 70 248 6.0 13.0 0.00 0.01 0.01 55 1028.4
20260902183516 69 248 6.0 16.0 0.00 0.01 0.01 57 1028.4
20260902182516 69 270 7.0 18.0 0.00 0.01 0.01 56 1028.5
20260902181539 70 248 5.0 12.0 0.00 0.01 0.01 56 1028.7
20260902180516 70 248 4.0 12.0 0.00 0.01 0.01 56 1029.2
20260902175516 71 248 4.0 13.0 0.00 0.01 0.01 56 1029.3
20260902174516 69 270 5.0 11.0 0.00 0.01 0.01 59 1028.9
20260902173536 69 248 8.0 15.0 0.00 0.01 0.01 58 1028.9
20260902172516 69 248 3.0 11.0 0.00 0.01 0.01 61 1029.1
20260902171516 68 248 3.0 10.0 0.00 0.01 0.01 62 1029.1
20260902170516 67 248 4.0 17.0 0.00 0.01 0.01 64 1029.1
20260902165536 66 248 3.0 12.0 0.00 0.01 0.01 66 1028.9
20260902164516 67 225 4.0 15.0 0.00 0.01 0.01 67 1029.0
20260902163516 66 225 4.0 11.0 0.00 0.01 0.01 69 1028.9
20260902162516 65 248 3.0 11.0 0.00 0.01 0.01 72 1028.9
20260902161516 64 248 4.0 11.0 0.00 0.01 0.01 75 1028.5
20260902160516 64 248 6.0 12.0 0.00 0.01 0.01 79 1028.9
20260902155516 64 248 1.0 6.0 0.00 0.01 0.01 80 1029.0
20260902154516 64 225 1.0 9.0 0.00 0.01 0.01 82 1029.1
20260902153516 63 248 2.0 7.0 0.00 0.01 0.01 83 1029.1
20260902152516 62 0.0 3.0 0.00 0.01 0.01 87 1029.1
20260902151516 61 248 1.0 4.0 0.00 0.01 0.01 88 1028.6
20260902150516 61 270 3.0 9.0 0.00 0.01 0.01 89 1029.7
20260902145516 61 0.0 0.0 0.00 0.01 0.01 90 1029.2
20260902144516 60 0.0 3.0 0.00 0.01 0.01 92 1029.2
20260902143516 59 270 1.0 6.0 0.00 0.01 0.01 93 1029.7
20260902142516 59 180 1.0 10.0 0.00 0.01 0.01 94 1029.8
20260902141515 58 0.0 0.0 0.00 0.01 0.01 96 1029.3
20260902140516 58 0.0 0.0 0.00 0.01 0.01 96 1029.9
20260902135516 57 0.0 0.0 0.00 0.01 0.01 96 1029.9
20260902134516 57 0.0 0.0 0.00 0.01 0.01 97 1029.8
20260902133516 56 0.0 1.0 0.00 0.01 0.01 97 1029.5
20260902132515 56 0.0 0.0 0.00 0.01 0.01 96 1029.5
20260902131536 56 0.0 0.0 0.00 0.01 0.01 97 1029.6
20260902130515 55 0.0 1.0 0.00 0.01 0.01 96 1030.1
20260902125515 55 0.0 1.0 0.00 0.02 0.01 96 1030.0
20260902124516 54 0.0 0.0 0.00 0.02 0.01 95 1029.4
20260902123516 56 0.0 4.0 0.00 0.02 0.01 97 1030.1
20260902122515 55 0.0 0.0 0.00 0.02 0.01 97 1030.0
20260902121515 54 0.0 0.0 0.00 0.02 0.01 96 1029.6
20260902120515 55 0.0 7.0 0.00 0.02 0.01 97 1030.7
20260902115515 54 0.0 0.0 0.00 0.02 0.01 97 1030.8
20260902114515 52 0.0 0.0 0.00 0.02 0.01 96 1030.4
20260902113515 52 0.0 0.0 0.00 0.02 0.01 96 1029.9
20260902112515 52 0.0 1.0 0.00 0.02 0.01 95 1029.3
20260902111536 52 0.0 0.0 0.01 0.02 0.01 95 1029.0
20260902110537 52 0.0 1.0 0.01 0.02 0.01 95 1029.9
20260902105517 52 0.0 1.0 0.01 0.02 0.01 96 1029.3
20260902104517 51 0.0 0.0 0.01 0.02 0.01 95 1029.0
20260902103517 51 0.0 0.0 0.01 0.02 0.01 94 1029.0
20260902102537 52 0.0 0.0 0.01 0.02 0.01 96 1028.8
20260902101517 51 0.0 0.0 0.00 0.01 0.00 94 1028.8
20260902100537 51 0.0 0.0 0.00 0.01 0.00 95 1028.6
20260902095517 50 0.0 0.0 0.00 0.01 0.00 94 1029.1
20260902094517 50 0.0 1.0 0.00 0.01 0.00 94 1029.2
20260902093517 50 0.0 0.0 0.00 0.01 0.00 93 1029.2
20260902092517 50 0.0 0.0 0.00 0.01 0.00 94 1030.2
20260902091517 50 0.0 0.0 0.00 0.01 0.00 93 1030.2
20260902090517 50 0.0 0.0 0.00 0.01 0.00 94 1030.5
20260902085517 49 0.0 1.0 0.00 0.01 0.00 93 1030.7
20260902084517 49 0.0 0.0 0.00 0.01 0.00 93 1030.7
20260902083537 49 0.0 0.0 0.00 0.01 0.00 93 1030.8
20260902082517 49 0.0 0.0 0.00 0.01 0.00 93 1031.0
20260902081517 49 0.0 0.0 0.00 0.01 0.00 93 1031.1
20260902080517 49 0.0 0.0 0.00 0.01 0.00 93 1031.0
20260902075517 49 0.0 0.0 0.00 0.02 0.00 93 1030.7